Regional Weather Roundup
Issued by NWS

Home | Current Version | Previous Version | Graphics & Text | Print | Product List | Glossary On
Versions: 1 2 3 4 5 6 7 8 9 10 11 12 13 14 15 16 17 18 19 20 21 22 23 24 25 26 27 28 29 30 31 32 33 34 35 36 37 38 39 40 41 42 43 44 45 46 47 48 49 50
000
ASUS44 KMEG 010910
RWRTN
TENNESSEE HOURLY STATE WEATHER ROUNDUP
NATIONAL WEATHER SERVICE MEMPHIS TN
300 AM CST WED MAR 01 2017

TNZ002-004-019-021-049-052-054-088>092-011000-
WEST TENNESSEE

CITY           SKY/WX    TMP DP  RH WIND       PRES   REMARKS
MEMPHIS INTL   CLOUDY    72  65  78 SW17G36   29.77F
NWS MEMPHIS      N/A     71 N/A N/A MISG        N/A
JACKSON        CLOUDY    70  65  84 S22G33    29.74F
UNION CITY     MOCLDY    70  68  94 S16       29.68F
PARIS          CLOUDY    68  61  77 SW21      29.73F
HUNTINGDON     CLOUDY    72  63  73 SW17G37   29.72F
$$

TNZ008-025-027-028-033-062-065-066-011000-
NORTH MIDDLE TENNESSEE

CITY           SKY/WX    TMP DP  RH WIND       PRES   REMARKS
NASHVILLE      CLOUDY    70  61  73 S21       29.82F
PORTLAND       CLOUDY    68  63  83 S20G31    29.77F
CLARKSVILLE    CLOUDY    72  60  66 SW21G37   29.73F
SMYRNA         CLOUDY    68  62  81 S10G22    29.84F
COOKEVILLE     CLOUDY    68  61  77 SW14G36   29.86F
GALLATIN       CLOUDY    70  63  78 S15G23    29.83F
CROSSVILLE     CLOUDY    62  58  86 S9G21     29.94F
$$

TNZ061-075-076-078-094-096-097-011000-
SOUTH MIDDLE TENNESSEE

CITY           SKY/WX    TMP DP  RH WIND       PRES   REMARKS
FAYETTEVILLE   CLOUDY    66  63  88 S16       29.92F
TULLAHOMA      CLOUDY    64  61  88 S14       29.92F
WINCHESTER     CLOUDY    66  61  82 SW10      29.94F
MCMINNVILLE    PTCLDY    66  63  88 S14       29.89F
COLUMBIA       PTCLDY    68  68 100 SW17      29.84F
SHELBYVILLE    MOCLDY    68  63  83 S16       29.89F
$$

TNZ017-018-042-046-047-011000-
NORTHEAST TENNESSEE

CITY           SKY/WX    TMP DP  RH WIND       PRES   REMARKS
TRI CITIES     CLOUDY    53  53 100 CALM      29.94F FOG
ELIZABETHTON   DRIZZLE   57  55  94 CALM      29.94F
$$

TNZ012-013-036-069-073-074-011000-
CENTRAL EAST TENNESSEE

CITY           SKY/WX    TMP DP  RH WIND       PRES   REMARKS
KNOXVILLE      CLOUDY    67  57  70 SW21G26   29.93F
OAK RIDGE      CLOUDY    63  59  87 SW8       29.94F
DOWNTOWN KNOXV CLOUDY    54  54 100 CALM      29.94F FOG
GATLINBURG     MOCLDY    59  54  82 CALM      29.93F
MORRISTOWN     CLOUDY    54  54 100 CALM      29.93F FOG
JACKSBORO      CLOUDY    66  59  77 SW18G39   29.93S
$$

TNZ083-085-099-011000-
SOUTHEAST TENNESSEE

CITY           SKY/WX    TMP DP  RH WIND       PRES   REMARKS
CHATTANOOGA    CLOUDY    62  59  90 S7        29.98F
$$

SKY/WX REPORTED AS FAIR MEANS FEW OR NO CLOUDS BELOW
12 THOUSAND FEET.




USA.gov is the U.S. government's official web portal to all federal, state and local government web resources and services.